[[{"header":{"parameterUnit":"m.s-1","parameterCategory":1,"la1":30.2991,"la2":30.254,"lo1":-89.0895,"lo2":-89.0444,"dy":0.0017,"dx":0.0017,"nx":28,"ny":28,"refTime":"2025-05-14T21:00:00:Z","depth":0,"parameterNumber":2,"parameterNumberName":"U-component_of_WINDS"},"data":[0,0,0,0,0,0,0,0,0,0,0,0,0,0,0,0,0,0,0,0,0,0,0,0,0,0,0,0,0,0,0,0,0,0,0,0,0,0,0,0,0,0,0,0,0,0,0,0,0,0,0,0,0,0,0,0,0,0,2.1712,2.1712,0,2.1772,2.1773,2.1773,2.1746,2.1745,2.1743,2.1742,2.1801,2.1804,2.1807,0,0,0,0,0,0,0,0,0,0,0,0,0,2.1569,2.1572,2.1712,2.1712,2.1713,2.1772,2.1773,2.1773,2.1746,2.1744,2.1743,2.1741,2.18,2.1804,2.1807,0,0,0,0,0,0,0,0,0,0,0,0,0,2.163,2.1573,2.1712,2.1707,2.1707,2.1772,2.1773,2.1774,2.1747,2.1744,2.1742,2.174,2.1799,2.1803,2.1808,2.188,0,0,2.1821,2.1823,0,0,0,0,0,0,0,0,2.1627,2.1636,2.1707,2.1707,2.1708,2.1749,2.1744,2.1809,2.1747,2.1732,2.1742,2.1739,2.1786,2.1791,2.1807,2.1883,2.1885,2.1822,2.1825,2.1826,2.1828,0,0,0,0,0,0,0,2.1623,2.1633,2.1735,2.1708,2.1708,2.17,2.1707,2.1756,2.177,2.1733,2.1731,2.1738,2.1785,2.1803,2.1808,2.1886,2.1822,2.1826,2.1828,2.183,2.2021,2.2023,0,0,0,0,0,0,2.1619,2.163,2.1734,2.1737,2.1661,2.1705,2.1712,2.1738,2.177,2.1772,2.174,2.1737,2.1796,2.1803,2.181,2.1895,2.1826,2.1831,2.1833,2.2019,2.2022,2.2024,0,0,0,0,0,0,2.1616,2.1629,2.1731,2.1683,2.1695,2.171,2.1739,2.174,2.1758,2.1775,2.1777,2.1756,2.1795,2.1804,2.1862,2.1896,2.1833,2.1837,2.2016,2.202,2.2023,2.2066,0,0,0,0,0,0,2.1612,2.1628,2.1656,2.1684,2.1698,2.1783,2.1742,2.1743,2.1766,2.1762,2.1791,2.1793,2.1794,2.1856,2.1867,2.1901,2.184,2.2013,2.2018,2.2022,2.2061,2.207,2.2078,0,0,0,0,0,2.1607,2.1666,2.1658,2.1671,2.1734,2.1786,2.1794,2.1794,2.1769,2.1797,2.1808,2.1792,2.1891,2.1862,2.1874,2.1911,2.2011,2.2016,2.2021,2.2058,2.2069,2.2078,0,0,0,0,0,0,2.1642,2.167,2.1661,2.1731,2.1756,2.1781,2.1816,2.1806,2.1838,2.1833,2.1831,2.1838,2.1897,2.191,2.1877,2.1981,2.1947,2.1955,2.197,2.1981,2.1989,2.1984,2.1844,0,0,0,0,0,2.1658,2.1699,2.172,2.178,2.1793,2.1803,2.1825,2.1823,2.1848,2.1859,2.1874,2.1898,2.1935,2.1959,2.1993,2.2063,2.2068,2.2094,2.2103,2.2109,2.2116,2.2151,2.2162,2.2042,2.2042,2.2042,0,0,2.1692,2.1712,2.1737,2.1787,2.1806,2.1846,2.1812,2.1856,2.1885,2.1865,2.1921,2.1933,2.196,2.2023,2.2052,2.2036,2.215,2.2116,2.2121,2.2124,2.2157,2.2169,2.2179,2.2046,2.2045,2.2044,0,0,2.1772,2.1793,2.1843,2.1863,2.1892,2.1898,2.191,2.1936,2.1943,2.1999,2.1984,2.2018,2.2082,2.2101,2.2119,2.2204,2.219,2.2216,2.2259,2.2293,2.2303,2.2311,2.2339,2.2349,2.2222,2.2223,2.2223,0,2.1809,2.187,2.187,2.1915,2.1937,2.192,2.197,2.1989,2.2028,2.2043,2.2024,2.2101,2.2119,2.2185,2.2206,2.2222,2.2234,2.2212,2.2301,2.231,2.2317,2.2344,2.2355,2.2225,2.2225,2.2225,2.2224,0,2.1913,2.1956,2.1993,2.2031,2.2056,2.2104,2.2109,2.2135,2.213,2.2137,2.2193,2.2213,2.225,2.2266,2.2262,2.2331,2.232,2.2302,2.2267,2.2332,2.2357,2.2367,2.2229,2.2228,2.2227,2.2227,0,0,2.2018,2.2054,2.2068,2.2083,2.2114,2.2146,2.2191,2.2228,2.2249,2.2276,2.2313,2.2366,2.2348,2.2369,2.2367,2.2397,2.246,2.2374,2.2375,2.2388,2.2535,2.2547,2.2559,2.2452,2.2454,2.2455,2.2532,0,2.2099,2.218,2.218,2.2253,2.2291,2.2275,2.2314,2.2336,2.2344,2.2376,2.2384,2.242,2.2396,2.2408,2.2437,2.2446,2.2489,2.2441,2.2484,2.2485,2.2475,2.2572,2.2586,2.2657,2.2542,2.2543,2.2545,0,2.2205,2.2235,2.2312,2.2335,2.235,2.2386,2.2418,2.2449,2.2473,2.2476,2.2498,2.2491,2.2535,2.25,2.256,2.2527,2.2545,2.2551,2.2554,2.2557,2.2517,2.2575,2.268,2.269,2.256,2.2559,2.2558,0,2.227,2.233,2.2383,2.2398,2.2426,2.2451,2.2464,2.2485,2.2507,2.2535,2.2548,2.2581,2.2598,2.2623,2.2623,2.2599,2.2683,2.2649,2.2685,2.2685,2.2702,2.2701,2.2809,2.2717,2.2717,2.2716,2.2716,0,2.2359,2.2406,2.2412,2.2445,2.2497,2.2496,2.2547,2.2557,2.2576,2.2609,2.2598,2.2629,2.2629,2.266,2.2661,2.2709,2.2717,2.2719,2.2719,2.2719,2.2719,2.273,2.2724,2.2719,2.2719,2.2718,2.2717,0,2.244,2.2447,2.2503,2.2526,2.2532,2.2569,2.2587,2.2617,2.2623,2.2665,2.2675,2.2684,2.272,2.2723,2.2765,2.2765,2.2822,2.2817,2.2814,2.2813,2.2847,2.2843,2.2965,2.298,2.288,2.2881,2.2882,0,2.2496,2.2532,2.2557,2.2579,2.2593,2.2628,2.2649,2.2649,2.2672,2.27,2.2726,2.2761,2.2789,2.2846,2.2856,2.2887,2.2881,2.2922,2.2886,2.2884,2.2879,2.2876,2.2878,2.2928,2.2929,2.293,2.2931,0,2.2593,2.2594,2.2625,2.2658,2.2683,2.2709,2.2732,2.275,2.2753,2.2778,2.2815,2.2836,2.2878,2.2912,2.2942,2.2953,2.2942,2.2942,2.2951,2.2952,2.2947,2.2948,2.2831,2.2939,2.2938,2.2937,2.2937,2.2937,2.2661,2.2691,2.2714,2.2748,2.2766,2.2788,2.2817,2.2826,2.2857,2.2891,2.2889,2.2929,2.2949,2.2989,2.3002,2.3032,2.3018,2.3033,2.3036,2.3039,2.3041,2.2944,2.3038,2.3038,2.3038,2.3037,2.3037,0,2.2755,2.2769,2.2801,2.2834,2.2861,2.2849,2.2873,2.2896,2.2931,2.2952,2.2979,2.302,2.3052,2.3064,2.3094,2.3116,2.3111,2.3124,2.3121,2.3123,2.3053,2.3041,2.3127,2.3127,2.3127,2.3127,2.3127,2.3127,2.2808,2.2857,2.286,2.2918,2.293,2.2969,2.2984,2.3003,2.3019,2.3065,2.3092,2.31,2.3116,2.3148,2.3176,2.3179,2.3189,2.3204,2.3204,2.3138,2.3129,2.312,2.3108,2.3207,2.3207,2.3271,2.3272,2.3272]},{"header":{"parameterUnit":"m.s-1","parameterCategory":1,"la1":30.2991,"la2":30.254,"lo1":-89.0895,"lo2":-89.0444,"dy":0.0017,"dx":0.0017,"nx":28,"ny":28,"refTime":"2025-05-14T21:00:00:Z","depth":0,"parameterNumber":3,"parameterNumberName":"V-component_of_WINDS"},"data":[0,0,0,0,0,0,0,0,0,0,0,0,0,0,0,0,0,0,0,0,0,0,0,0,0,0,0,0,0,0,0,0,0,0,0,0,0,0,0,0,0,0,0,0,0,0,0,0,0,0,0,0,0,0,0,0,0,0,6.3062,6.3062,0,6.3108,6.3108,6.3109,6.3022,6.3019,6.3016,6.3013,6.3056,6.3059,6.3063,0,0,0,0,0,0,0,0,0,0,0,0,0,6.2893,6.2897,6.3062,6.3062,6.3063,6.3108,6.3108,6.3109,6.3022,6.3019,6.3015,6.3012,6.3054,6.3059,6.3064,0,0,0,0,0,0,0,0,0,0,0,0,0,6.2955,6.2898,6.3061,6.3025,6.3022,6.3107,6.3108,6.3109,6.3023,6.3019,6.3014,6.301,6.3053,6.3059,6.3064,6.3185,0,0,6.3082,6.3084,0,0,0,0,0,0,0,0,6.2952,6.2962,6.303,6.3028,6.3025,6.3055,6.3064,6.3134,6.3024,6.3023,6.3013,6.3008,6.3059,6.3064,6.3081,6.3187,6.3189,6.3082,6.3086,6.3088,6.309,0,0,0,0,0,0,0,6.2948,6.2959,6.308,6.3031,6.3028,6.3005,6.3009,6.3077,6.3064,6.3022,6.3016,6.3023,6.3056,6.3076,6.3082,6.319,6.3082,6.3087,6.309,6.3093,6.3395,6.34,0,0,0,0,0,0,6.2949,6.2956,6.3078,6.3081,6.2977,6.3011,6.3016,6.3049,6.3063,6.3061,6.3027,6.3019,6.3069,6.3075,6.3083,6.3225,6.3088,6.3093,6.3097,6.3391,6.3396,6.3401,0,0,0,0,0,0,6.2945,6.296,6.3076,6.3017,6.303,6.3019,6.3057,6.3053,6.3072,6.3066,6.3063,6.305,6.3065,6.3075,6.316,6.3225,6.3096,6.3101,6.3385,6.3393,6.3399,6.351,0,0,0,0,0,0,6.2941,6.296,6.3007,6.3019,6.3034,6.3155,6.3061,6.3057,6.3083,6.3073,6.3087,6.3085,6.3063,6.3152,6.3166,6.323,6.3105,6.338,6.3389,6.3397,6.35,6.352,6.3536,0,0,0,0,0,6.2935,6.3036,6.301,6.3025,6.3093,6.3159,6.3167,6.3141,6.3089,6.3135,6.3131,6.3085,6.3216,6.3162,6.3177,6.3244,6.3375,6.3386,6.3396,6.3492,6.3516,6.3536,0,0,0,0,0,0,6.303,6.3037,6.3008,6.3116,6.3138,6.3144,6.3202,6.3167,6.3203,6.3192,6.3156,6.3159,6.3252,6.3256,6.3196,6.3361,6.3286,6.33,6.3355,6.3377,6.3395,6.3391,6.311,0,0,0,0,0,6.3064,6.312,6.3121,6.3216,6.3228,6.3214,6.3242,6.3219,6.324,6.3248,6.325,6.3271,6.3316,6.3347,6.3388,6.3501,6.3501,6.3554,6.3572,6.3586,6.3599,6.3657,6.368,6.3436,6.3436,6.3435,0,0,6.3134,6.3144,6.3181,6.3235,6.325,6.3305,6.3222,6.3285,6.3326,6.3257,6.3338,6.3341,6.3361,6.346,6.3504,6.3466,6.3666,6.36,6.3612,6.3616,6.367,6.3693,6.3713,6.3443,6.3441,6.344,0,0,6.329,6.3304,6.3384,6.34,6.3423,6.3413,6.3432,6.3444,6.3444,6.3525,6.3474,6.3521,6.3601,6.3617,6.3636,6.3797,6.3755,6.3811,6.3905,6.3962,6.3981,6.3998,6.4054,6.4075,6.3824,6.3824,6.3824,0,6.3373,6.3457,6.3429,6.3496,6.352,6.3462,6.3542,6.3558,6.3593,6.3611,6.3569,6.3667,6.3677,6.3778,6.3818,6.3835,6.3854,6.3809,6.3981,6.3998,6.4013,6.4066,6.4088,6.383,6.383,6.3829,6.3828,0,6.3558,6.3617,6.3678,6.3715,6.3747,6.382,6.38,6.3835,6.381,6.3803,6.3886,6.3895,6.3937,6.396,6.3935,6.4058,6.4034,6.3987,6.3912,6.4043,6.4092,6.4113,6.384,6.3838,6.3836,6.3834,0,0,6.3775,6.3795,6.3818,6.3834,6.3855,6.3899,6.3968,6.4011,6.4041,6.4067,6.4123,6.4191,6.4148,6.4169,6.4146,6.4197,6.4322,6.4143,6.4143,6.4175,6.4456,6.449,6.4514,6.4295,6.4299,6.4302,6.4454,0,6.3928,6.405,6.4026,6.4143,6.4196,6.4142,6.4202,6.422,6.4216,6.4259,6.4253,6.4302,6.4242,6.4254,6.4302,6.4297,6.4378,6.4286,6.4345,6.4348,6.4341,6.454,6.4577,6.472,6.4473,6.4476,6.4479,0,6.4124,6.4159,6.4282,6.4294,6.4316,6.437,6.4407,6.4449,6.4468,6.4461,6.4485,6.4452,6.4519,6.4444,6.4534,6.4472,6.4495,6.4496,6.4501,6.4504,6.4421,6.4548,6.4765,6.4786,6.4509,6.4507,6.4504,0,6.4268,6.4346,6.4429,6.4445,6.4461,6.45,6.4509,6.4524,6.4551,6.4582,6.4598,6.4637,6.4658,6.4687,6.4665,6.4612,6.4758,6.4682,6.4753,6.4754,6.4785,6.4784,6.5008,6.4802,6.4802,6.4802,6.4801,0,6.4442,6.4519,6.4494,6.4546,6.463,6.4601,6.4685,6.4686,6.47,6.4749,6.4704,6.4751,6.4719,6.4763,6.4745,6.4822,6.4832,6.4827,6.4821,6.483,6.4831,6.4844,6.4833,6.4807,6.4806,6.4805,6.4804,0,6.4617,6.4604,6.4691,6.47,6.4704,6.4766,6.4772,6.4818,6.4811,6.4873,6.4886,6.4874,6.4923,6.4903,6.4955,6.4943,6.5041,6.5023,6.5035,6.503,6.5102,6.5095,6.5342,6.5372,6.5148,6.5151,6.5152,0,6.4728,6.4787,6.4802,6.4833,6.4845,6.4894,6.4922,6.4895,6.4925,6.4951,6.4994,6.5039,6.5074,6.5154,6.5149,6.5188,6.5169,6.5253,6.5174,6.5182,6.5169,6.5165,6.517,6.5268,6.5271,6.5273,6.5274,0,6.4927,6.4917,6.496,6.5,6.5034,6.5064,6.5089,6.5116,6.509,6.5126,6.5176,6.5203,6.5256,6.5301,6.5336,6.5342,6.5304,6.5299,6.5318,6.5327,6.5332,6.5329,6.5077,6.5294,6.5292,6.529,6.5289,6.5288,6.5073,6.5121,6.514,6.5188,6.5204,6.5229,6.5273,6.5272,6.5314,6.5356,6.5337,6.5395,6.541,6.5453,6.5465,6.5508,6.5475,6.5502,6.5509,6.5516,6.5525,6.5326,6.5515,6.5514,6.5514,6.5513,6.5513,0,6.5268,6.5277,6.5321,6.5359,6.5396,6.5359,6.5385,6.5418,6.547,6.5489,6.5525,6.5582,6.5625,6.5623,6.5662,6.5697,6.5681,6.5709,6.5705,6.5707,6.5553,6.5532,6.5721,6.5721,6.5721,6.5721,6.5721,6.5721,6.5373,6.5454,6.5447,6.5534,6.5542,6.56,6.5617,6.5639,6.5654,6.5721,6.5757,6.5756,6.5766,6.5806,6.5843,6.5841,6.5857,6.5892,6.5883,6.5739,6.5718,6.5698,6.5679,6.5896,6.5896,6.6033,6.6035,6.6036]}]]